DW9421 Weather Reports


time (UTC)temp
C
wind
direction
speed
KPH
gust
KPH
rain 1hr
cm
rain 24hr
cm
rain mn
cm
humidity
%
barometer
mb
20260504081513 10 360 0.0 0.0 0.00 0.00 0.00 69 1015.6
20260504050113 9 360 0.0 0.0 0.00 0.00 0.00 64 1016.0
20260504044555 9 360 0.0 0.0 0.00 0.00 0.00 62 1016.0
20260504043101 9 360 0.0 0.0 0.00 0.00 0.00 60 1015.9
20260504041552 9 360 0.0 0.0 0.00 0.00 0.00 59 1015.8
20260504040056 9 360 0.0 0.0 0.00 0.00 0.00 57 1015.8
20260504034558 9 360 0.0 0.0 0.00 0.00 0.00 57 1016.0
20260504033053 9 360 0.0 0.0 0.00 0.00 0.00 57 1015.7
20260504031557 9 360 0.0 0.0 0.00 0.00 0.00 56 1015.6
20260504030049 10 360 0.0 0.0 0.00 0.00 0.00 57 1015.5
20260504024549 10 360 0.0 0.0 0.00 0.00 0.00 55 1015.4
20260504023048 10 360 0.0 0.0 0.00 0.00 0.00 55 1015.3
20260504021548 10 360 0.0 0.0 0.00 0.00 0.00 55 1015.3
20260504020059 10 360 0.0 0.0 0.00 0.00 0.00 52 1015.2
20260504014551 11 360 0.0 0.0 0.00 0.00 0.00 53 1015.2
20260504013049 11 360 0.0 0.0 0.00 0.00 0.00 52 1015.1
20260504011548 11 360 0.0 0.0 0.00 0.00 0.00 52 1015.0
20260504010046 12 360 0.0 0.0 0.00 0.00 0.00 47 1015.0
20260504004545 12 360 0.0 0.0 0.00 0.00 0.00 48 1014.8
20260504003047 12 360 0.0 0.0 0.00 0.00 0.00 45 1014.7
20260504001544 13 360 0.0 0.0 0.00 0.00 0.00 41 1014.6
20260504000047 13 360 0.0 0.0 0.00 0.00 0.00 38 1014.5
20260503234543 14 360 0.0 0.0 0.00 0.00 0.00 37 1014.3
20260503233043 14 360 0.0 6.4 0.00 0.00 0.00 37 1014.2
20260503231543 15 360 0.0 6.4 0.00 0.00 0.00 37 1014.1
20260503230052 15 360 0.0 6.4 0.00 0.00 0.00 35 1014.1
20260503224541 15 360 0.0 4.8 0.00 0.00 0.00 35 1014.2
20260503223039 15 360 0.0 4.8 0.00 0.00 0.00 34 1014.2
20260503221538 15 360 1.6 8.0 0.00 0.00 0.00 34 1014.3
20260503220037 15 360 0.0 9.7 0.00 0.00 0.00 34 1014.2
20260503214542 15 360 0.0 4.8 0.00 0.00 0.00 34 1014.3
20260503213038 15 360 0.0 6.4 0.00 0.00 0.00 33 1014.4
20260503211548 15 360 3.2 14.5 0.00 0.00 0.00 32 1014.2
20260503210036 15 360 1.6 9.7 0.00 0.00 0.00 36 1014.5
20260503204538 15 360 1.6 11.3 0.00 0.00 0.00 35 1014.4
20260503203043 15 360 1.6 14.5 0.00 0.00 0.00 35 1014.5
20260503201535 15 360 1.6 8.0 0.00 0.00 0.00 34 1014.7
20260503200050 15 360 1.6 9.7 0.00 0.00 0.00 35 1014.8
20260503194533 15 360 1.6 12.9 0.00 0.00 0.00 33 1015.0
20260503193035 15 360 1.6 11.3 0.00 0.00 0.00 35 1015.2
20260503191530 15 360 3.2 14.5 0.00 0.00 0.00 36 1015.4
20260503190026 15 360 1.6 12.9 0.00 0.00 0.00 38 1015.7
20260503184533 14 360 0.0 9.7 0.00 0.00 0.00 39 1015.8
20260503183025 14 360 4.8 9.7 0.00 0.00 0.00 37 1016.0
20260503181524 14 360 1.6 9.7 0.00 0.00 0.00 37 1016.1
20260503180041 14 360 4.8 16.1 0.00 0.00 0.00 37 1016.2
20260503174525 13 360 3.2 16.1 0.00 0.00 0.00 40 1016.3
20260503173025 13 360 1.6 12.9 0.00 0.00 0.00 37 1016.5
20260503171517 13 360 1.6 14.5 0.00 0.00 0.00 38 1016.5